Regional Weather Roundup
Issued by NWS Sioux Falls, SD

Home | Current Version | Previous Version | Graphics & Text | Print | Product List | Glossary Off
Versions: 1 2 3 4 5 6 7 8 9 10 11 12 13 14 15 16 17 18 19 20 21 22 23 24 25 26 27 28 29 30 31 32 33 34 35 36 37 38 39 40 41 42 43 44 45 46 47 48 49 50

000
ASUS43 KFSD 210602
RWRFSD

WEATHER ROUNDUP FOR SE SOUTH DAKOTA/SW MINNESOTA/NW IOWA
NATIONAL WEATHER SERVICE SIOUX FALLS SD
100 AM CDT SUN SEP 21 2014

NOTE: "FAIR" INDICATES FEW OR NO CLOUDS BELOW 12,000 FEET WITH NO
SIGNIFICANT WEATHER AND OR OBSTRUCTIONS TO VISIBILITY.


SDZ038>040-050-052>070-210700-
SOUTHEAST SOUTH DAKOTA

CITY           SKY/WX    TMP DP  RH WIND       PRES   REMARKS
CHAMBERLAIN    CLEAR     54  41  62 NW7       30.15R
6HR MIN TEMP:  51; 6HR MAX TEMP:  73;

HURON          CLEAR     53  40  61 NW12      30.08R
6HR MIN TEMP:  52; 6HR MAX TEMP:  71;

MADISON        FAIR      52  45  76 NW10      30.06S
MITCHELL       CLEAR     56  43  61 NW10      30.10R
6HR MIN TEMP:  53; 6HR MAX TEMP:  74;

SIOUX FALLS    CLEAR     56  46  69 W8        30.05R
6HR MIN TEMP:  56; 6HR MAX TEMP:  73;

WINNER         FAIR      53  39  59 NW6       30.18R
YANKTON        CLEAR     55  45  67 W10       30.09S
$$

MNZ071-072-080-081-089-090-097-098-210700-
SOUTHWEST MINNESOTA

CITY           SKY/WX    TMP DP  RH WIND       PRES   REMARKS
FAIRMONT       CLEAR     59  45  58 W15       29.95S
JACKSON        CLEAR     59  45  58 W12G17    29.98S
LUVERNE        CLEAR     52  45  76 NW7       30.04R
MARSHALL       CLEAR     57  43  58 NW14      29.96S
6HR MIN TEMP:  55; 6HR MAX TEMP:  63;

MONTEVIDEO     CLEAR     55  48  76 N10       29.97R
PIPESTONE      CLEAR     57  45  62 NW12      30.02S
REDWOOD FALLS  CLEAR     56  48  74 NW10      29.94R
TRACY          CLEAR     58  46  64 W8        29.97F
WINDOM         CLEAR     54  46  76 W7        29.97S
WORTHINGTON    CLEAR     55  45  67 W14       30.01S
$$

IAZ001>003-012>014-020>022-031-032-NEZ013-014-SDZ071-210700-
NORTHWEST IOWA

CITY           SKY/WX    TMP DP  RH WIND       PRES   REMARKS
CHEROKEE       CLEAR     56  50  79 W6        30.04S
DENISON        CLEAR     55  54  94 CALM      30.04S
ESTHERVILLE    CLEAR     56  48  74 W10       29.98S
LE MARS          N/A     54  50  87 CALM      30.06R
ORANGE CITY    CLEAR     54  45  71 W5        30.04F
SHELDON        CLEAR     54  48  82 W8        30.02S
SIOUX CITY     CLEAR     58  50  75 W8        30.07R
6HR MIN TEMP:  57; 6HR MAX TEMP:  80;

SPENCER        CLEAR     52  48  86 W8        30.01R
6HR MIN TEMP:  52; 6HR MAX TEMP:  78;

$$

ABBREVIATIONS USED IN REMARKS
   TC - TEMPERATURE IN CELSIUS
  WCI - WIND CHILL INDEX
   HX - HEAT INDEX
  VSB - VISIBILITY



USA.gov is the U.S. government's official web portal to all federal, state and local government web resources and services.